Погода в Кириллове

Россия / Вологодская область     59°51′32″N   38°22′29″E
темп.,
°C
ветер,
м/с
пор.,
м/с
влажн.,
%
обл.,
%
осадки,
мм/ч
давл.,
гПа
погр.,
м
13 мая, чт
чт1300:00+13вюв22795 0.0 102232
03:00+12юв248682 0.0 102155
06:00+14вюв278593 0.0 1020179
09:00+20ююв486118 0.0 1020773
12:00+21юв485919 0.1 10191286
15:00+22ю47578 0.9 10181669
18:00+20ююз236417 0.1 1015609
21:00+15всв2689100 1.2 1013120
14 мая, пт
пт1400:00+14юв3795100 2.4 1012303
03:00+12ю399799 2.8 1014388
06:00+11ю31093100 0.0 1015364
09:00+14ююз487495 0.0 1016876
12:00+18ююз57515 0.0 10161435
15:00+19ю464763 0.0 10161751
18:00+18ю345720 0.0 10151097
21:00+12юв22817 0.0 101527
15 мая, сб
сб1500:00+13вюв257839 0.0 1014108
03:00+12юв3990100 0.3 1013342
06:00+13вюв3109760 2.1 1011472
09:00+17юв4784100 2.2 1010624
12:00+21ю596264 0.0 10081392
15:00+22ю5960100 0.5 10071269
18:00+18ююв4987100 0.6 1005538
21:00+15ю31094100 2.3 1004198
16 мая, вс
вс1600:00+13ю3119697 2.1 1005282
03:00+12ю41197100 2.1 1005373
06:00+13юз4994100 0.5 1007636
09:00+14зюз4888100 0.6 1008730
12:00+18зюз466759 0.0 10101166
15:00+17з357589 0.9 10111101
18:00+17зюз247565 0.4 1012665
21:00+13ююз249292 0.4 101360
17 мая, пн
пн1700:00+11зсз22951 0.0 101420
03:00+10ссв11910 0.0 101610
06:00+12юв018523 0.0 101655
09:00+17ююв23690 0.0 1017606
12:00+21ю3353100 0.0 10161679
15:00+21ююв3351100 0.0 10161511
18:00+20юв2469100 0.0 1015212
21:00+15вюв2487100 0.0 101469